Flag for Haiti Weather past 2 weeks in Port-au-Prince, Haiti

Now
73 °F

Passing clouds.


Feels Like: 68 °F
Forecast: 74 / 89 °F
Wind: No wind

Location: Santiago

Current Time: Sep 16, 2014 at 5:46:14 AM

Latest Report: Sep 16, 2014 at 5:00 AM


Visibility: N/A

Pressure: 29.98 "Hg

Humidity: 100%

Dew point: 73 °F

Location of Port-au-PrinceLocation

Historic Weather in Port-au-Prince — Graph

°F

Port-au-Prince temperature yesterday

Maximum temperature yesterday: 90 °F (at 2:00 PM)
Minimum temperature yesterday: 72 °F (at 2:00 AM)
Average temperature yesterday: 79 °F

Past Weeks' High & Low Weather Summary

 TemperatureHumidityPressure
High91 °F (Sep 2, 3:00 PM)100% (Sep 1, 5:00 AM)30.09 "Hg (Sep 1, 5:00 AM)
Low70 °F (Sep 6, 5:00 PM)46% (Sep 13, 4:00 PM)29.89 "Hg (Sep 2, 4:00 PM)
Average79 °F84%29.99 "Hg
* Reported Sep 1 5:00 AM — Sep 16 5:00 AM, Port-au-Prince, Weather by CustomWeather, © 2014

Note: Actual official high and low records may vary slightly from our data, if they occured in-between our weather recording intervals... More about our weather records

Advertising

Port-au-Prince weather history for previous 24 hours

 ConditionsComfort  
Time TempWeatherWind HumidityBarometerVisibility
5:00 AM
Sep 16
73 °FPassing clouds.No wind100%29.98 "HgN/A
4:00 AM75 °FPassing clouds.No wind100%29.95 "HgN/A
3:00 AM75 °FPassing clouds.No wind100%29.98 "HgN/A
2:00 AM75 °FPassing clouds.No wind94%30.01 "HgN/A
1:00 AM75 °FPassing clouds.No wind94%30.01 "HgN/A
12:00 AM77 °FPassing clouds.5 mph94%30.04 "HgN/A
11:00 PM
Sep 15
79 °FPassing clouds.No wind84%30.04 "HgN/A
10:00 PM79 °FPassing clouds.5 mph84%30.04 "HgN/A
9:00 PM81 °FPassing clouds.5 mph79%30.01 "HgN/A
8:00 PM81 °FPassing clouds.7 mph79%29.98 "HgN/A
7:00 PM81 °FPassing clouds.No wind79%29.98 "HgN/A
6:00 PM81 °FWarm.No wind74%29.95 "HgN/A
5:00 PM88 °FPartly sunny.9 mph59%29.95 "HgN/A
4:00 PM90 °FScattered clouds.9 mph59%29.95 "HgN/A
2:00 PM90 °FScattered clouds.12 mph59%29.98 "HgN/A
1:00 PM88 °FScattered clouds.7 mph59%30.01 "HgN/A
12:00 PM86 °FScattered clouds.9 mph62%30.01 "HgN/A
11:00 AM84 °FScattered clouds.12 mph66%30.04 "HgN/A
10:00 AM84 °FScattered clouds.No wind70%30.04 "HgN/A
9:00 AM79 °FPassing clouds.No wind89%30.04 "HgN/A
8:00 AM73 °FPassing clouds.No wind94%30.04 "HgN/A
7:00 AM72 °FScattered clouds.No wind100%30.04 "HgN/A
6:00 AM72 °FPassing clouds.No wind100%30.01 "HgN/A
5:00 AM72 °FPassing clouds.No wind100%30.01 "HgN/A
Weather by CustomWeather, © 2014

See weather overviewHow to use our weather pages